KJ6WEG Weather Reports


Display with metric or nautical units.
time (UTC)temp
F
wind
direction
speed
MPH
gust
MPH
rain 1hr
in
rain 24hr
in
rain mn
in
humidity
%
barometer
mb
20260902090555 60 100 2.0 4.0 0.00 0.00 0.00 90 1017.0
20260902090104 60 98 1.0 3.0 0.00 0.00 0.00 90 1017.0
20260902085554 60 88 1.0 2.0 0.00 0.00 0.00 90 1016.8
20260902085054 60 0 0.0 3.0 0.00 0.00 0.00 90 1017.0
20260902084624 60 0 0.0 3.0 0.00 0.00 0.00 90 1017.0
20260902084054 60 0 1.0 3.0 0.00 0.00 0.00 89 1017.0
20260902083554 60 105 1.0 4.0 0.00 0.00 0.00 89 1017.0
20260902083101 60 123 1.0 4.0 0.00 0.00 0.00 89 1017.1
20260902082555 60 121 1.0 4.0 0.00 0.00 0.00 89 1017.0
20260902082055 60 0 0.0 0.0 0.00 0.00 0.00 89 1017.1
20260902081607 60 0 0.0 0.0 0.00 0.00 0.00 89 1017.1
20260902081054 60 0 0.0 0.0 0.00 0.00 0.00 89 1017.1
20260902080555 61 0 0.0 3.0 0.00 0.00 0.00 89 1017.2
20260902080104 61 0 0.0 5.0 0.00 0.00 0.00 89 1017.2
20260902075554 61 166 0.0 5.0 0.00 0.00 0.00 89 1017.1
20260902075057 61 0 0.0 4.0 0.00 0.00 0.00 89 1017.1
20260902074607 61 151 0.0 4.0 0.00 0.00 0.00 89 1017.1
20260902074054 61 167 1.0 3.0 0.00 0.00 0.00 89 1017.0
20260902073555 61 0 0.0 3.0 0.00 0.00 0.00 89 1017.0
20260902073102 61 169 0.0 3.0 0.00 0.00 0.00 89 1017.0
20260902072553 61 176 0.0 3.0 0.00 0.00 0.00 89 1017.1
20260902072056 61 0 0.0 2.0 0.00 0.00 0.00 89 1017.0
20260902071606 61 0 0.0 3.0 0.00 0.00 0.00 89 1016.9
20260902071055 61 0 0.0 3.0 0.00 0.00 0.00 89 1017.0
20260902070554 61 169 1.0 4.0 0.00 0.00 0.00 89 1017.0
20260902070116 61 0 1.0 5.0 0.00 0.00 0.00 89 1017.0
20260902065556 61 163 2.0 5.0 0.00 0.00 0.00 89 1017.0
20260902065054 61 176 1.0 4.0 0.00 0.00 0.00 89 1017.0
20260902064610 61 176 0.0 2.0 0.00 0.00 0.00 89 1016.9
20260902064054 61 0 0.0 3.0 0.00 0.00 0.00 89 1017.0
20260902063556 61 0 0.0 4.0 0.00 0.00 0.00 89 1016.9
20260902063109 61 197 0.0 4.0 0.00 0.00 0.00 89 1017.0
20260902062559 61 202 1.0 4.0 0.00 0.00 0.00 89 1016.9
20260902062054 61 240 0.0 2.0 0.00 0.00 0.00 89 1017.0
20260902061610 61 199 0.0 2.0 0.00 0.00 0.00 89 1017.0
20260902061055 61 0 0.0 4.0 0.00 0.00 0.00 89 1017.0
20260902060554 62 228 0.0 4.0 0.00 0.00 0.00 89 1017.1
20260902060114 62 211 1.0 4.0 0.00 0.00 0.00 89 1017.1
20260902055555 62 233 1.0 3.0 0.00 0.00 0.00 89 1017.1
20260902055055 62 0 0.0 3.0 0.00 0.00 0.00 89 1017.1
20260902054602 62 189 0.0 2.0 0.00 0.00 0.00 89 1017.0
20260902054054 62 178 0.0 2.0 0.00 0.00 0.00 89 1017.2
20260902053554 62 0 0.0 3.0 0.00 0.00 0.00 89 1017.2
20260902053121 62 0 0.0 3.0 0.00 0.00 0.00 89 1017.2
20260902052557 62 156 1.0 4.0 0.00 0.00 0.00 89 1017.0
20260902052054 62 209 1.0 4.0 0.00 0.00 0.00 89 1017.1
20260902051605 62 220 1.0 5.0 0.00 0.00 0.00 89 1017.2
20260902051057 62 188 1.0 5.0 0.00 0.00 0.00 89 1017.2
20260902050555 62 214 1.0 5.0 0.00 0.00 0.00 89 1017.3
20260902050121 62 223 1.0 4.0 0.00 0.00 0.00 89 1017.3
20260902045554 62 181 1.0 4.0 0.00 0.00 0.00 89 1017.3
20260902045054 62 0 0.0 5.0 0.00 0.00 0.00 89 1017.4
20260902044606 62 225 0.0 6.0 0.00 0.00 0.00 89 1017.4
20260902044055 62 0 0.0 7.0 0.00 0.00 0.00 89 1017.4
20260902043554 62 225 2.0 7.0 0.00 0.00 0.00 89 1017.4
20260902043107 62 0 2.0 8.0 0.00 0.00 0.00 89 1017.4
20260902042554 62 194 2.0 8.0 0.00 0.00 0.00 88 1017.3
20260902042054 62 250 3.0 8.0 0.00 0.00 0.00 88 1017.2
20260902041615 62 227 2.0 7.0 0.00 0.00 0.00 88 1017.1
20260902041054 62 240 2.0 6.0 0.00 0.00 0.00 88 1017.1
20260902040556 62 239 2.0 7.0 0.00 0.00 0.00 88 1017.1
20260902040106 62 215 1.0 7.0 0.00 0.00 0.00 88 1017.1
20260902035554 62 254 1.0 7.0 0.00 0.00 0.00 88 1017.0
20260902035059 62 236 0.0 8.0 0.00 0.00 0.00 88 1017.1
20260902034605 62 300 1.0 8.0 0.00 0.00 0.00 88 1017.1
20260902034055 63 240 2.0 8.0 0.00 0.00 0.00 88 1016.9
20260902033555 63 238 2.0 8.0 0.00 0.00 0.00 88 1017.0
20260902033110 63 223 2.0 9.0 0.00 0.00 0.00 88 1016.8
20260902032555 63 250 2.0 11.0 0.00 0.00 0.00 88 1016.8
20260902032057 63 223 3.0 11.0 0.00 0.00 0.00 88 1016.7
20260902031607 63 218 3.0 10.0 0.00 0.00 0.00 88 1016.6
20260902031055 63 258 3.0 10.0 0.00 0.00 0.00 88 1016.7
20260902030555 63 265 2.0 9.0 0.00 0.00 0.00 88 1016.6
20260902030112 63 262 2.0 8.0 0.00 0.00 0.00 88 1016.5
20260902025555 63 283 3.0 11.0 0.00 0.00 0.00 88 1016.5
20260902025055 63 186 3.0 11.0 0.00 0.00 0.00 87 1016.5
20260902024608 63 245 3.0 11.0 0.00 0.00 0.00 87 1016.5
20260902024057 63 249 1.0 7.0 0.00 0.00 0.00 87 1016.5
20260902023552 63 253 2.0 8.0 0.00 0.00 0.00 86 1016.4
20260902023102 63 283 2.0 8.0 0.00 0.00 0.00 86 1016.5
20260902022557 63 306 2.0 9.0 0.00 0.00 0.00 85 1016.6
20260902022058 63 0 2.0 9.0 0.00 0.00 0.00 85 1016.6
20260902021605 63 256 2.0 9.0 0.00 0.00 0.00 84 1016.5
20260902021057 63 267 2.0 9.0 0.00 0.00 0.00 84 1016.5
20260902020556 64 243 4.0 9.0 0.00 0.00 0.00 83 1016.4
20260902020109 64 199 1.0 9.0 0.00 0.00 0.00 83 1016.3
20260902015556 64 234 2.0 9.0 0.00 0.00 0.00 83 1016.4
20260902015055 64 250 2.0 9.0 0.00 0.00 0.00 83 1016.4
20260902014601 64 249 2.0 10.0 0.00 0.00 0.00 83 1016.3
20260902014056 64 347 3.0 10.0 0.00 0.00 0.00 83 1016.3
20260902013554 65 200 2.0 10.0 0.00 0.00 0.00 83 1016.3
20260902013107 65 243 2.0 8.0 0.00 0.00 0.00 83 1016.3
20260902012555 65 279 2.0 8.0 0.00 0.00 0.00 83 1016.3
20260902012056 65 246 3.0 8.0 0.00 0.00 0.00 82 1016.2
20260902011602 65 288 2.0 9.0 0.00 0.00 0.00 83 1016.2
20260902011055 65 228 2.0 9.0 0.00 0.00 0.00 82 1016.2
20260902010555 65 296 2.0 12.0 0.00 0.00 0.00 82 1016.1
20260902010116 65 236 3.0 12.0 0.00 0.00 0.00 81 1016.2
20260902005554 66 219 3.0 11.0 0.00 0.00 0.00 80 1016.3
20260902005055 66 221 1.0 11.0 0.00 0.00 0.00 81 1016.2
20260902004607 66 281 2.0 11.0 0.00 0.00 0.00 79 1016.2
20260902004057 66 301 2.0 13.0 0.00 0.00 0.00 79 1016.2
20260902003554 67 335 3.0 13.0 0.00 0.00 0.00 80 1016.2
20260902003103 66 0 4.0 10.0 0.00 0.00 0.00 80 1016.2
20260902002557 67 261 3.0 10.0 0.00 0.00 0.00 79 1016.1
20260902002055 67 276 3.0 9.0 0.00 0.00 0.00 79 1016.1
20260902001630 67 236 3.0 13.0 0.00 0.00 0.00 79 1016.2
20260902001054 67 225 2.0 13.0 0.00 0.00 0.00 79 1016.2
20260902000554 67 298 2.0 13.0 0.00 0.00 0.00 79 1016.2
20260902000104 67 186 4.0 11.0 0.00 0.00 0.00 79 1016.3
20260901235555 68 296 4.0 11.0 0.00 0.00 0.00 77 1016.2
20260901235055 68 275 2.0 10.0 0.00 0.00 0.00 78 1016.2
20260901234605 68 227 3.0 12.0 0.00 0.00 0.00 78 1016.3
20260901234054 68 284 3.0 13.0 0.00 0.00 0.00 76 1016.4
20260901233554 68 307 3.0 13.0 0.00 0.00 0.00 76 1016.4
20260901233106 68 311 2.0 11.0 0.00 0.00 0.00 75 1016.5
20260901232555 68 237 3.0 11.0 0.00 0.00 0.00 74 1016.5
20260901232056 68 323 3.0 10.0 0.00 0.00 0.00 76 1016.6
20260901231607 68 282 2.0 9.0 0.00 0.00 0.00 76 1016.6
20260901231054 68 246 3.0 11.0 0.00 0.00 0.00 77 1016.6
20260901230557 68 0 3.0 12.0 0.00 0.00 0.00 77 1016.7
20260901230106 68 220 4.0 12.0 0.00 0.00 0.00 76 1016.7
20260901225555 68 317 3.0 14.0 0.00 0.00 0.00 76 1016.6
20260901225056 69 360 3.0 14.0 0.00 0.00 0.00 75 1016.7
20260901224616 69 265 3.0 14.0 0.00 0.00 0.00 76 1016.7
20260901224053 69 223 3.0 11.0 0.00 0.00 0.00 77 1016.7
20260901223556 69 288 4.0 11.0 0.00 0.00 0.00 76 1016.7
20260901223106 69 207 4.0 11.0 0.00 0.00 0.00 76 1016.7
20260901222556 69 302 2.0 11.0 0.00 0.00 0.00 77 1016.7
20260901222056 69 254 5.0 11.0 0.00 0.00 0.00 76 1016.7
20260901221604 69 243 4.0 12.0 0.00 0.00 0.00 77 1016.7
20260901221057 69 306 2.0 12.0 0.00 0.00 0.00 77 1016.8
20260901220556 69 281 3.0 11.0 0.00 0.00 0.00 76 1016.8
20260901220106 69 312 3.0 9.0 0.00 0.00 0.00 77 1016.7
20260901215557 69 275 2.0 9.0 0.00 0.00 0.00 76 1016.7
20260901215058 69 317 4.0 9.0 0.00 0.00 0.00 77 1016.7
20260901214605 69 173 2.0 9.0 0.00 0.00 0.00 77 1016.7
20260901214056 69 279 3.0 11.0 0.00 0.00 0.00 77 1016.7
20260901213556 69 312 3.0 11.0 0.00 0.00 0.00 77 1016.7
20260901213125 69 296 3.0 12.0 0.00 0.00 0.00 77 1016.7
20260901212553 69 239 3.0 12.0 0.00 0.00 0.00 77 1016.7
20260901212052 69 292 3.0 12.0 0.00 0.00 0.00 77 1016.7
20260901211603 68 227 3.0 11.0 0.00 0.00 0.00 77 1016.7
20260901211053 68 207 6.0 11.0 0.00 0.00 0.00 78 1016.7
20260901210552 68 240 5.0 12.0 0.00 0.00 0.00 77 1016.6
20260901210121 67 310 3.0 12.0 0.00 0.00 0.00 79 1016.7
20260901205552 67 227 2.0 10.0 0.00 0.00 0.00 80 1016.7
20260901205052 68 232 4.0 10.0 0.00 0.00 0.00 78 1016.7
20260901204608 68 246 3.0 10.0 0.00 0.00 0.00 78 1016.8
20260901204053 68 221 3.0 14.0 0.00 0.00 0.00 78 1016.7
20260901203552 68 306 3.0 14.0 0.00 0.00 0.00 78 1016.8
20260901203104 68 326 5.0 13.0 0.00 0.00 0.00 78 1016.8
20260901202556 68 295 3.0 11.0 0.00 0.00 0.00 77 1016.9
20260901202053 69 300 3.0 11.0 0.00 0.00 0.00 78 1016.8
20260901201603 68 319 3.0 11.0 0.00 0.00 0.00 78 1016.8
20260901201053 68 271 2.0 10.0 0.00 0.00 0.00 78 1016.9
20260901200552 68 289 4.0 9.0 0.00 0.00 0.00 78 1017.0
20260901200114 68 0 3.0 11.0 0.00 0.00 0.00 78 1016.9
20260901195554 68 275 4.0 11.0 0.00 0.00 0.00 78 1017.0
20260901195053 68 292 3.0 10.0 0.00 0.00 0.00 78 1017.0
20260901194603 68 308 3.0 11.0 0.00 0.00 0.00 78 1017.0
20260901194054 68 247 2.0 11.0 0.00 0.00 0.00 79 1017.0
20260901193554 67 284 1.0 10.0 0.00 0.00 0.00 80 1017.1
20260901193111 67 261 4.0 10.0 0.00 0.00 0.00 78 1017.2
20260901192554 67 289 2.0 9.0 0.00 0.00 0.00 78 1017.2
20260901192100 67 233 2.0 9.0 0.00 0.00 0.00 77 1017.1
20260901191605 68 0 3.0 9.0 0.00 0.00 0.00 77 1017.2
20260901191053 68 249 2.0 8.0 0.00 0.00 0.00 79 1017.1
20260901190553 68 188 3.0 8.0 0.00 0.00 0.00 78 1017.2
20260901190109 67 236 1.0 8.0 0.00 0.00 0.00 79 1017.2
20260901185554 67 236 3.0 12.0 0.00 0.00 0.00 79 1017.2
20260901185058 66 293 3.0 12.0 0.00 0.00 0.00 80 1017.2
20260901184610 66 219 1.0 7.0 0.00 0.00 0.00 83 1017.3
20260901184051 66 220 2.0 7.0 0.00 0.00 0.00 81 1017.2
20260901183554 66 267 1.0 8.0 0.00 0.00 0.00 82 1017.3
20260901183111 66 217 3.0 8.0 0.00 0.00 0.00 81 1017.1
20260901182555 66 245 2.0 9.0 0.00 0.00 0.00 79 1017.1
20260901182055 66 360 3.0 9.0 0.00 0.00 0.00 78 1017.1
20260901181607 66 360 1.0 8.0 0.00 0.00 0.00 80 1017.0
20260901181054 65 360 2.0 8.0 0.00 0.00 0.00 81 1017.1
20260901180554 65 260 4.0 9.0 0.00 0.00 0.00 80 1017.1
20260901180108 65 241 2.0 9.0 0.00 0.00 0.00 82 1017.1
20260901175553 65 247 2.0 10.0 0.00 0.00 0.00 82 1017.1
20260901175054 66 220 4.0 10.0 0.00 0.00 0.00 83 1017.1
20260901174607 65 192 2.0 10.0 0.00 0.00 0.00 85 1017.0
20260901174055 65 259 3.0 9.0 0.00 0.00 0.00 85 1016.9
20260901173555 64 246 3.0 10.0 0.00 0.00 0.00 86 1016.8
20260901173102 64 249 3.0 10.0 0.00 0.00 0.00 85 1016.7
20260901172554 64 235 3.0 10.0 0.00 0.00 0.00 84 1016.6
20260901172054 64 280 1.0 10.0 0.00 0.00 0.00 86 1016.7
20260901171608 64 360 2.0 10.0 0.00 0.00 0.00 86 1016.7
20260901171055 64 304 4.0 11.0 0.00 0.00 0.00 85 1016.8
20260901170555 64 322 3.0 12.0 0.00 0.00 0.00 86 1016.8
20260901170109 64 211 2.0 12.0 0.00 0.00 0.00 86 1016.6
20260901165555 64 205 3.0 10.0 0.00 0.00 0.00 86 1016.6
20260901165056 63 246 3.0 9.0 0.00 0.00 0.00 86 1016.5
20260901164605 63 234 2.0 9.0 0.00 0.00 0.00 88 1016.4
20260901164057 63 219 4.0 9.0 0.00 0.00 0.00 87 1016.4
20260901163556 63 265 2.0 9.0 0.00 0.00 0.00 88 1016.4
20260901163117 63 258 2.0 9.0 0.00 0.00 0.00 88 1016.3
20260901162559 63 247 2.0 8.0 0.00 0.00 0.00 89 1016.3
20260901162054 62 264 4.0 12.0 0.00 0.00 0.00 89 1016.3
20260901161627 62 360 2.0 12.0 0.00 0.00 0.00 90 1016.3
20260901161056 62 202 2.0 12.0 0.00 0.00 0.00 90 1016.3
20260901160558 62 232 2.0 14.0 0.00 0.00 0.00 90 1016.3
20260901160104 62 194 4.0 14.0 0.00 0.00 0.00 90 1016.2
20260901155556 62 254 5.0 11.0 0.00 0.00 0.00 90 1016.2
20260901155055 62 231 4.0 10.0 0.00 0.00 0.00 90 1016.2
20260901154620 62 242 3.0 10.0 0.00 0.00 0.00 90 1016.1
20260901154057 61 234 3.0 10.0 0.00 0.00 0.00 91 1016.1
20260901153601 61 360 3.0 10.0 0.00 0.00 0.00 91 1016.0
20260901153108 61 261 2.0 10.0 0.00 0.00 0.00 92 1015.9
20260901152556 61 248 2.0 10.0 0.00 0.00 0.00 92 1015.9
20260901152059 61 281 3.0 8.0 0.00 0.00 0.00 92 1015.9
20260901151610 61 213 2.0 11.0 0.00 0.00 0.00 92 1015.8
20260901151052 61 360 3.0 11.0 0.00 0.00 0.00 93 1015.8
20260901150555 61 180 3.0 11.0 0.00 0.00 0.00 93 1015.6
20260901150121 61 274 2.0 9.0 0.00 0.00 0.00 93 1015.6
20260901145553 61 235 2.0 8.0 0.00 0.00 0.00 93 1015.6
20260901145054 60 360 1.0 7.0 0.00 0.00 0.00 93 1015.6
20260901144605 60 0 2.0 7.0 0.00 0.00 0.00 93 1015.5
20260901144054 60 0 2.0 7.0 0.00 0.00 0.00 93 1015.5
20260901143554 60 209 2.0 7.0 0.00 0.00 0.00 93 1015.4
20260901143104 60 267 1.0 7.0 0.00 0.00 0.00 93 1015.3
20260901142550 60 233 2.0 5.0 0.00 0.00 0.00 93 1015.3
20260901142055 60 234 1.0 10.0 0.00 0.00 0.00 93 1015.2
20260901141610 60 0 2.0 10.0 0.00 0.00 0.00 93 1015.2
20260901141056 60 207 1.0 7.0 0.00 0.00 0.00 93 1015.2
20260901140553 60 237 3.0 7.0 0.00 0.00 0.00 93 1015.1
20260901140108 60 212 1.0 6.0 0.00 0.00 0.00 93 1015.0
20260901135556 60 211 2.0 8.0 0.00 0.00 0.00 93 1014.9
20260901135055 60 221 2.0 8.0 0.00 0.00 0.00 93 1014.9
20260901134606 60 243 3.0 8.0 0.00 0.00 0.00 93 1014.9
20260901134053 60 212 1.0 5.0 0.00 0.00 0.00 93 1014.9
20260901133554 60 188 1.0 7.0 0.00 0.00 0.00 93 1014.9
20260901133105 60 251 2.0 7.0 0.00 0.00 0.00 93 1014.7
20260901132551 60 240 1.0 7.0 0.00 0.00 0.00 93 1014.7
20260901132055 60 0 3.0 7.0 0.00 0.00 0.00 92 1014.6
20260901131608 60 249 2.0 7.0 0.00 0.00 0.00 92 1014.6
20260901131054 60 239 2.0 6.0 0.00 0.00 0.00 92 1014.5
20260901130555 60 238 1.0 5.0 0.00 0.00 0.00 92 1014.4
20260901130108 60 215 1.0 5.0 0.00 0.00 0.00 92 1014.3
20260901125551 60 233 1.0 6.0 0.00 0.00 0.00 92 1014.2
20260901125054 60 246 2.0 7.0 0.00 0.00 0.00 92 1014.4
20260901124607 60 241 1.0 7.0 0.00 0.00 0.00 92 1014.5
20260901124057 60 228 1.0 6.0 0.00 0.00 0.00 91 1014.4
20260901123551 60 360 1.0 6.0 0.00 0.00 0.00 91 1014.5
20260901123104 60 0 2.0 6.0 0.00 0.00 0.00 91 1014.5
20260901122555 60 360 1.0 5.0 0.00 0.00 0.00 91 1014.3
20260901122057 60 281 1.0 7.0 0.00 0.00 0.00 91 1014.3
20260901121614 60 360 1.0 7.0 0.00 0.00 0.00 91 1014.1
20260901121054 60 251 2.0 6.0 0.00 0.00 0.00 91 1014.2
20260901120556 60 360 2.0 5.0 0.00 0.00 0.00 91 1014.2
20260901120115 60 0 1.0 6.0 0.00 0.00 0.00 92 1014.1
20260901115554 60 0 2.0 6.0 0.00 0.00 0.00 91 1014.2
20260901115056 60 360 2.0 6.0 0.00 0.00 0.00 92 1014.2
20260901114609 60 360 2.0 6.0 0.00 0.00 0.00 92 1014.1
20260901114054 60 228 0.0 6.0 0.00 0.00 0.00 92 1014.3
20260901113556 60 244 1.0 6.0 0.00 0.00 0.00 92 1014.4
20260901113106 60 240 2.0 6.0 0.00 0.00 0.00 92 1014.3
20260901112553 60 259 2.0 6.0 0.00 0.00 0.00 92 1014.4
20260901112056 60 0 1.0 6.0 0.00 0.00 0.00 92 1014.5
20260901111609 60 360 1.0 8.0 0.00 0.00 0.00 91 1014.5
20260901111057 60 360 2.0 8.0 0.00 0.00 0.00 91 1014.5
20260901110556 60 268 2.0 10.0 0.00 0.00 0.00 91 1014.4
20260901110107 60 289 3.0 10.0 0.00 0.00 0.00 91 1014.5
20260901105556 60 0 2.0 8.0 0.00 0.00 0.00 91 1014.5
20260901105057 60 360 2.0 8.0 0.00 0.00 0.00 91 1014.5
20260901104602 61 360 2.0 8.0 0.00 0.00 0.00 91 1014.4
20260901104056 61 360 2.0 9.0 0.00 0.00 0.00 91 1014.4
20260901103555 61 181 2.0 9.0 0.00 0.00 0.00 91 1014.4
20260901103108 61 360 3.0 9.0 0.00 0.00 0.00 91 1014.4
20260901102555 61 267 2.0 10.0 0.00 0.00 0.00 91 1014.4
20260901102057 61 294 3.0 10.0 0.00 0.00 0.00 91 1014.2
20260901101602 61 257 2.0 6.0 0.00 0.00 0.00 91 1014.3
20260901101057 61 269 2.0 6.0 0.00 0.00 0.00 91 1014.3
20260901100556 61 255 1.0 6.0 0.00 0.00 0.00 90 1014.2
20260901100106 61 249 1.0 6.0 0.00 0.00 0.00 90 1014.1
20260901095556 61 360 1.0 6.0 0.00 0.00 0.00 90 1014.2
20260901095056 61 223 1.0 8.0 0.00 0.00 0.00 90 1014.2
20260901094607 61 360 1.0 8.0 0.00 0.00 0.00 90 1014.2
20260901094056 61 250 1.0 6.0 0.00 0.00 0.00 90 1014.2
20260901093556 61 244 1.0 8.0 0.00 0.00 0.00 90 1014.2
20260901093108 61 0 1.0 8.0 0.00 0.00 0.00 90 1014.1
20260901092553 61 360 0.0 7.0 0.00 0.00 0.00 89 1014.2
20260901092056 60 229 1.0 7.0 0.00 0.00 0.00 89 1014.2
20260901091620 60 0 1.0 7.0 0.00 0.00 0.00 90 1014.2
20260901091057 60 269 1.0 8.0 0.00 0.00 0.00 90 1014.4